Simultaneous Nadir Overpasses (SNOs) Predictions

Prediction of SNOs between NOAA-20 and METOP-B Satellite Orbit:

Table of predicted SNOs for the next 14.0 days since TLE Epoch: 7/22/2018
Index Date (NOAA-20) Time (NOAA-20) Lat,Lon (NOAA-20) SZA (NOAA-20 ) Date (METOP-B) Time (METOP-B) Lat,Lon (METOP-B) SZA (METOP-B ) Distance(km) Time Diff (sec)
1 08/05/2018 11:12:05 -73.60,-178.18 123.02 08/05/2018 11:13:11 -73.57,-175.29 123.23 90.93 66
2 08/05/2018 12:02:47 73.41, -10.44 56.78 08/05/2018 12:03:55 73.35, -8.44 56.59 63.84 68
3 08/05/2018 12:53:29 -73.30, 157.12 123.33 08/05/2018 12:54:39 -73.24, 158.64 123.50 49.30 70
4 08/05/2018 13:44:10 73.06, -35.04 56.41 08/05/2018 13:45:23 73.03, -34.50 56.33 18.28 73




NCC Satellite Simultaneous Nadir Overpasses (SNOs) Prediction Service
